STV1 KIAD-KGWO

Flight info

Callsign STV1
Flight time 2h 37m
Altitude 36000
Route CLTCH3 MAULS Q40 ALEAN VXV OTB
Aircraft CL60/M-SADE3FGHIJ3J4J7P2RWXY/HB1D1

Departure

Time 2026-05-01 10:30
Airport Washington Dulles International Airport (KIAD)

Arrival

Time 2026-05-01 13:07
Airport Greenwood–Leflore Airport (KGWO)
Time Latitude Longitude Altitude Speed Heading
2026-05-01 09:31 38.94012 -77.44534 299 ft 0 kts 181°
2026-05-01 10:23 38.93995 -77.44541 298 ft 4 kts 232°
2026-05-01 10:23 38.94014 -77.44582 298 ft 7 kts 329°
2026-05-01 10:24 38.94110 -77.44699 296 ft 12 kts 271°
2026-05-01 10:24 38.94113 -77.44939 296 ft 14 kts 275°
2026-05-01 10:25 38.94115 -77.45226 294 ft 17 kts 269°
2026-05-01 10:25 38.94117 -77.45548 293 ft 9 kts 268°
2026-05-01 10:26 38.94087 -77.45617 292 ft 11 kts 182°
2026-05-01 10:26 38.93998 -77.45618 290 ft 14 kts 179°
2026-05-01 10:26 38.93767 -77.45622 288 ft 18 kts 181°
2026-05-01 10:27 38.93589 -77.45686 285 ft 15 kts 204°
2026-05-01 10:27 38.93430 -77.45766 282 ft 8 kts 213°
2026-05-01 10:28 38.93423 -77.45802 282 ft 0 kts 290°
2026-05-01 10:28 38.93424 -77.45806 282 ft 1 kts 291°
2026-05-01 10:29 38.93573 -77.46310 288 ft 88 kts 290°
2026-05-01 10:29 38.93854 -77.47279 302 ft 141 kts 290°
2026-05-01 10:30 38.94487 -77.49809 1359 ft 154 kts 287°
2026-05-01 10:30 38.95076 -77.52428 2658 ft 145 kts 290°
2026-05-01 10:31 38.94781 -77.54865 3458 ft 168 kts 229°
2026-05-01 10:31 38.92548 -77.56323 4744 ft 188 kts 210°
2026-05-01 10:32 38.89969 -77.57820 5466 ft 238 kts 209°
2026-05-01 10:32 38.88362 -77.58759 5900 ft 263 kts 209°
2026-05-01 10:32 38.84949 -77.60735 7610 ft 275 kts 209°
2026-05-01 10:33 38.81473 -77.62748 9505 ft 279 kts 211°
2026-05-01 10:33 38.77802 -77.64892 10458 ft 314 kts 211°
2026-05-01 10:34 38.75745 -77.66093 10869 ft 330 kts 210°
2026-05-01 10:34 38.73651 -77.67310 11491 ft 337 kts 209°
2026-05-01 10:34 38.71502 -77.68555 12243 ft 339 kts 210°
2026-05-01 10:35 38.67212 -77.71042 13780 ft 342 kts 210°
2026-05-01 10:35 38.65053 -77.72294 14693 ft 346 kts 211°
2026-05-01 10:35 38.62863 -77.73563 15635 ft 348 kts 210°
2026-05-01 10:35 38.60658 -77.74840 16542 ft 350 kts 210°
2026-05-01 10:36 38.56245 -77.77395 18190 ft 354 kts 211°
2026-05-01 10:36 38.53981 -77.78714 18905 ft 357 kts 212°
2026-05-01 10:36 38.51945 -77.80487 19590 ft 350 kts 229°
2026-05-01 10:37 38.50292 -77.82766 20236 ft 353 kts 232°
2026-05-01 10:37 38.46977 -77.87443 21552 ft 359 kts 232°
2026-05-01 10:37 38.45305 -77.89800 22199 ft 361 kts 233°
2026-05-01 10:38 38.43786 -77.92296 22795 ft 361 kts 238°
2026-05-01 10:38 38.42333 -77.94933 23351 ft 365 kts 238°
2026-05-01 10:38 38.40859 -77.97600 23938 ft 367 kts 238°
2026-05-01 10:38 38.39368 -78.00291 24502 ft 370 kts 238°
2026-05-01 10:39 38.37878 -78.02981 25047 ft 372 kts 238°
2026-05-01 10:39 38.36372 -78.05695 25516 ft 376 kts 238°
2026-05-01 10:39 38.34853 -78.08432 25998 ft 378 kts 238°
2026-05-01 10:39 38.33327 -78.11177 26457 ft 381 kts 238°
2026-05-01 10:40 38.31794 -78.13933 26912 ft 383 kts 238°
2026-05-01 10:40 38.30223 -78.16755 27352 ft 386 kts 238°
2026-05-01 10:40 38.28666 -78.19547 27739 ft 388 kts 238°
2026-05-01 10:40 38.27100 -78.22355 28128 ft 390 kts 238°
2026-05-01 10:41 38.25504 -78.25214 28419 ft 394 kts 238°
2026-05-01 10:41 38.23917 -78.28055 28777 ft 395 kts 238°
2026-05-01 10:41 38.20732 -78.33743 29542 ft 397 kts 238°
2026-05-01 10:42 38.19135 -78.36593 29828 ft 399 kts 238°
2026-05-01 10:42 38.17592 -78.39534 30005 ft 399 kts 244°
2026-05-01 10:42 38.16504 -78.42778 30231 ft 400 kts 250°
2026-05-01 10:42 38.15482 -78.46098 30424 ft 402 kts 250°
2026-05-01 10:43 38.14464 -78.49375 30653 ft 403 kts 250°
2026-05-01 10:43 38.13431 -78.52696 30891 ft 403 kts 250°
2026-05-01 10:43 38.12398 -78.56008 31198 ft 402 kts 250°
2026-05-01 10:43 38.11374 -78.59291 31511 ft 400 kts 250°
2026-05-01 10:44 38.10351 -78.62565 31825 ft 398 kts 250°
2026-05-01 10:44 38.09331 -78.65826 32115 ft 397 kts 250°
2026-05-01 10:44 38.08310 -78.69087 32366 ft 397 kts 250°
2026-05-01 10:44 38.07295 -78.72323 32591 ft 396 kts 250°
2026-05-01 10:45 38.06280 -78.75554 32886 ft 395 kts 250°
2026-05-01 10:45 38.05264 -78.78787 33123 ft 395 kts 250°
2026-05-01 10:45 38.04251 -78.82005 33385 ft 394 kts 250°
2026-05-01 10:45 38.03237 -78.85223 33627 ft 393 kts 250°
2026-05-01 10:46 38.02220 -78.88444 33803 ft 393 kts 251°
2026-05-01 10:46 38.00179 -78.94908 33926 ft 399 kts 251°
2026-05-01 10:47 37.98102 -79.01466 34057 ft 403 kts 251°
2026-05-01 10:47 37.97050 -79.04781 34159 ft 404 kts 251°
2026-05-01 10:47 37.96009 -79.08057 34292 ft 404 kts 251°
2026-05-01 10:48 37.93921 -79.14616 34490 ft 402 kts 251°
2026-05-01 10:48 37.92873 -79.17900 34608 ft 402 kts 251°
2026-05-01 10:48 37.91830 -79.21166 34709 ft 402 kts 251°
2026-05-01 10:48 37.90773 -79.24474 34821 ft 402 kts 251°
2026-05-01 10:49 37.89735 -79.27719 34915 ft 402 kts 251°
2026-05-01 10:49 37.87446 -79.34218 35091 ft 407 kts 244°
2026-05-01 10:50 37.84410 -79.40251 35215 ft 410 kts 242°
2026-05-01 10:50 37.81344 -79.46296 35530 ft 408 kts 242°
2026-05-01 10:51 37.78277 -79.52335 35610 ft 409 kts 242°
2026-05-01 10:51 37.76743 -79.55353 35781 ft 407 kts 243°
2026-05-01 10:51 37.75217 -79.58352 35860 ft 408 kts 243°
2026-05-01 10:51 37.73684 -79.61363 35976 ft 409 kts 243°
2026-05-01 10:52 37.72147 -79.64380 35936 ft 410 kts 242°
2026-05-01 10:52 37.69065 -79.70422 35925 ft 409 kts 242°
2026-05-01 10:53 37.65979 -79.76460 35981 ft 411 kts 242°
2026-05-01 10:53 37.62889 -79.82494 35963 ft 409 kts 243°
2026-05-01 10:54 37.59808 -79.88502 35974 ft 407 kts 242°
2026-05-01 10:54 37.56743 -79.94470 35979 ft 407 kts 243°
2026-05-01 10:55 37.53675 -80.00431 35972 ft 405 kts 243°
2026-05-01 10:55 37.50597 -80.06403 35936 ft 407 kts 243°
2026-05-01 10:56 37.47498 -80.12405 35948 ft 409 kts 243°
2026-05-01 10:56 37.44413 -80.18368 35931 ft 409 kts 243°
2026-05-01 10:57 37.41331 -80.24314 35972 ft 408 kts 243°
2026-05-01 10:57 37.38248 -80.30250 36038 ft 405 kts 243°
2026-05-01 10:58 37.35151 -80.36206 35946 ft 407 kts 244°
2026-05-01 10:58 37.32063 -80.42133 36014 ft 407 kts 243°
2026-05-01 10:59 37.28970 -80.48058 36034 ft 406 kts 243°
2026-05-01 10:59 37.25962 -80.54052 36001 ft 404 kts 245°
2026-05-01 11:00 37.23080 -80.60068 35985 ft 404 kts 245°
2026-05-01 11:00 37.20189 -80.66084 36247 ft 402 kts 245°
2026-05-01 11:00 37.18732 -80.69115 35858 ft 403 kts 246°
2026-05-01 11:01 37.17288 -80.72109 35965 ft 400 kts 245°
2026-05-01 11:01 37.14421 -80.78056 35987 ft 402 kts 245°
2026-05-01 11:02 37.11525 -80.84051 35919 ft 402 kts 245°
2026-05-01 11:02 37.08632 -80.90027 35880 ft 401 kts 246°
2026-05-01 11:02 37.07186 -80.93010 36013 ft 402 kts 246°
2026-05-01 11:03 37.05755 -80.95958 35665 ft 399 kts 246°
2026-05-01 11:03 37.04316 -80.98918 35964 ft 397 kts 246°
2026-05-01 11:03 37.04042 -80.99483 35948 ft 397 kts 246°
2026-05-01 11:04 37.01192 -81.05341 35954 ft 395 kts 246°
2026-05-01 11:04 36.98336 -81.11205 35946 ft 394 kts 246°
2026-05-01 11:05 36.95488 -81.17042 35959 ft 394 kts 246°
2026-05-01 11:05 36.92654 -81.22839 36009 ft 394 kts 246°
2026-05-01 11:06 36.89797 -81.28674 36029 ft 394 kts 246°
2026-05-01 11:06 36.86929 -81.34521 36027 ft 395 kts 246°
2026-05-01 11:07 36.82643 -81.43238 36031 ft 394 kts 247°
2026-05-01 11:07 36.79775 -81.49058 35956 ft 394 kts 247°
2026-05-01 11:08 36.76905 -81.54871 35963 ft 393 kts 247°
2026-05-01 11:09 36.72728 -81.63599 35965 ft 386 kts 252°
2026-05-01 11:09 36.70588 -81.69692 35966 ft 386 kts 253°
2026-05-01 11:10 36.67367 -81.78870 35975 ft 386 kts 253°
2026-05-01 11:10 36.65207 -81.85000 36038 ft 385 kts 253°
2026-05-01 11:11 36.63063 -81.91072 36029 ft 385 kts 253°
2026-05-01 11:11 36.60915 -81.97136 36026 ft 384 kts 253°
2026-05-01 11:12 36.58754 -82.03226 36020 ft 384 kts 253°
2026-05-01 11:12 36.56701 -82.08998 36020 ft 383 kts 253°
2026-05-01 11:13 36.54552 -82.15027 36019 ft 383 kts 254°
2026-05-01 11:13 36.52397 -82.21060 36018 ft 383 kts 253°
2026-05-01 11:14 36.50225 -82.27125 36014 ft 382 kts 254°
2026-05-01 11:14 36.48064 -82.33151 36016 ft 382 kts 253°
2026-05-01 11:15 36.45904 -82.39160 36019 ft 381 kts 254°
2026-05-01 11:15 36.43752 -82.45135 36021 ft 379 kts 254°
2026-05-01 11:16 36.41610 -82.51072 36015 ft 379 kts 254°
2026-05-01 11:16 36.39455 -82.57034 36018 ft 379 kts 254°
2026-05-01 11:17 36.37299 -82.62984 36020 ft 379 kts 254°
2026-05-01 11:17 36.35126 -82.68973 36009 ft 380 kts 254°
2026-05-01 11:18 36.32968 -82.74905 36022 ft 379 kts 254°
2026-05-01 11:18 36.30796 -82.80867 36020 ft 379 kts 254°
2026-05-01 11:19 36.28634 -82.86789 36029 ft 378 kts 254°
2026-05-01 11:19 36.26460 -82.92732 36015 ft 378 kts 254°
2026-05-01 11:20 36.24304 -82.98613 36023 ft 377 kts 254°
2026-05-01 11:20 36.22137 -83.04515 36016 ft 377 kts 254°
2026-05-01 11:21 36.19967 -83.10415 36012 ft 377 kts 254°
2026-05-01 11:21 36.17800 -83.16292 36054 ft 375 kts 255°
2026-05-01 11:22 36.15624 -83.22187 36032 ft 376 kts 254°
2026-05-01 11:22 36.13455 -83.28049 36048 ft 374 kts 254°
2026-05-01 11:23 36.11303 -83.33855 36054 ft 375 kts 254°
2026-05-01 11:23 36.09125 -83.39721 36057 ft 375 kts 254°
2026-05-01 11:24 36.06952 -83.45560 36059 ft 374 kts 254°
2026-05-01 11:25 36.03698 -83.54285 36015 ft 372 kts 255°
2026-05-01 11:25 36.00452 -83.62964 36026 ft 371 kts 255°
2026-05-01 11:26 35.97213 -83.71606 36042 ft 373 kts 255°
2026-05-01 11:27 35.95036 -83.77393 35861 ft 369 kts 255°
2026-05-01 11:27 35.93960 -83.80254 35559 ft 370 kts 254°
2026-05-01 11:27 35.92880 -83.83123 35267 ft 371 kts 254°
2026-05-01 11:27 35.91795 -83.86004 34882 ft 372 kts 254°
2026-05-01 11:28 35.90709 -83.88889 34565 ft 373 kts 255°
2026-05-01 11:28 35.89720 -83.91836 34142 ft 372 kts 257°
2026-05-01 11:28 35.88786 -83.94803 33832 ft 370 kts 257°
2026-05-01 11:29 35.86910 -84.00738 33145 ft 373 kts 257°
2026-05-01 11:29 35.85978 -84.03683 32775 ft 375 kts 257°
2026-05-01 11:29 35.84074 -84.09689 31926 ft 381 kts 256°
2026-05-01 11:30 35.83107 -84.12734 31510 ft 383 kts 256°
2026-05-01 11:30 35.82135 -84.15783 31219 ft 382 kts 256°
2026-05-01 11:30 35.81166 -84.18819 31014 ft 380 kts 257°
2026-05-01 11:30 35.80197 -84.21851 30734 ft 379 kts 255°
2026-05-01 11:31 35.79245 -84.24830 30526 ft 378 kts 256°
2026-05-01 11:31 35.78285 -84.27829 30326 ft 377 kts 256°
2026-05-01 11:31 35.77321 -84.30841 30064 ft 379 kts 256°
2026-05-01 11:31 35.76353 -84.33865 29825 ft 380 kts 255°
2026-05-01 11:32 35.75384 -84.36883 29652 ft 378 kts 255°
2026-05-01 11:32 35.74419 -84.39886 29498 ft 376 kts 255°
2026-05-01 11:32 35.73459 -84.42866 29378 ft 374 kts 255°
2026-05-01 11:32 35.72503 -84.45837 29197 ft 375 kts 256°
2026-05-01 11:33 35.71552 -84.48791 29067 ft 373 kts 255°
2026-05-01 11:33 35.69653 -84.54671 28863 ft 369 kts 255°
2026-05-01 11:33 35.68721 -84.57555 28546 ft 364 kts 256°
2026-05-01 11:34 35.67780 -84.60462 27910 ft 363 kts 256°
2026-05-01 11:34 35.66863 -84.63299 27223 ft 363 kts 255°
2026-05-01 11:34 35.65928 -84.66190 26507 ft 364 kts 254°
2026-05-01 11:34 35.64995 -84.69064 25894 ft 361 kts 255°
2026-05-01 11:35 35.64069 -84.71909 25240 ft 358 kts 254°
2026-05-01 11:35 35.63155 -84.74721 24605 ft 355 kts 254°
2026-05-01 11:35 35.62243 -84.77524 23967 ft 353 kts 253°
2026-05-01 11:35 35.61325 -84.80341 23334 ft 352 kts 253°
2026-05-01 11:36 35.60420 -84.83119 22703 ft 350 kts 253°
2026-05-01 11:36 35.59522 -84.85869 22067 ft 348 kts 253°
2026-05-01 11:36 35.58627 -84.88613 21431 ft 348 kts 253°
2026-05-01 11:36 35.57729 -84.91362 20806 ft 348 kts 253°
2026-05-01 11:37 35.56829 -84.94112 20262 ft 346 kts 253°
2026-05-01 11:37 35.55935 -84.96844 20039 ft 346 kts 253°
2026-05-01 11:37 35.55040 -84.99576 19999 ft 348 kts 253°
2026-05-01 11:37 35.54130 -85.02351 20008 ft 351 kts 253°
2026-05-01 11:38 35.53218 -85.05133 20012 ft 354 kts 253°
2026-05-01 11:38 35.52298 -85.07933 20011 ft 355 kts 253°
2026-05-01 11:38 35.51375 -85.10738 20002 ft 356 kts 253°
2026-05-01 11:38 35.50450 -85.13548 20010 ft 356 kts 253°
2026-05-01 11:39 35.49519 -85.16370 20014 ft 356 kts 253°
2026-05-01 11:39 35.48603 -85.19147 20018 ft 355 kts 253°
2026-05-01 11:39 35.47677 -85.21950 20006 ft 355 kts 253°
2026-05-01 11:39 35.46746 -85.24766 20011 ft 354 kts 253°
2026-05-01 11:40 35.45820 -85.27566 20014 ft 355 kts 253°
2026-05-01 11:40 35.44893 -85.30366 20014 ft 355 kts 253°
2026-05-01 11:40 35.43965 -85.33164 20017 ft 355 kts 253°
2026-05-01 11:40 35.43037 -85.35959 20017 ft 355 kts 253°
2026-05-01 11:41 35.42110 -85.38752 20015 ft 355 kts 253°
2026-05-01 11:41 35.41182 -85.41543 20012 ft 355 kts 253°
2026-05-01 11:41 35.40249 -85.44348 20021 ft 356 kts 253°
2026-05-01 11:41 35.39310 -85.47166 20018 ft 356 kts 253°
2026-05-01 11:42 35.38377 -85.49966 20024 ft 356 kts 253°
2026-05-01 11:42 35.37443 -85.52766 20015 ft 355 kts 253°
2026-05-01 11:42 35.36509 -85.55563 20019 ft 355 kts 253°
2026-05-01 11:42 35.35585 -85.58326 20020 ft 355 kts 253°
2026-05-01 11:43 35.34648 -85.61127 20007 ft 355 kts 252°
2026-05-01 11:43 35.33710 -85.63928 20025 ft 355 kts 253°
2026-05-01 11:43 35.32774 -85.66721 20016 ft 356 kts 252°
2026-05-01 11:44 35.30897 -85.72315 20017 ft 356 kts 252°
2026-05-01 11:44 35.29959 -85.75104 20030 ft 356 kts 252°
2026-05-01 11:44 35.29016 -85.77909 20021 ft 357 kts 252°
2026-05-01 11:44 35.28065 -85.80734 20026 ft 357 kts 252°
2026-05-01 11:45 35.27122 -85.83531 20018 ft 356 kts 252°
2026-05-01 11:45 35.26179 -85.86325 20034 ft 356 kts 252°
2026-05-01 11:45 35.25232 -85.89130 20040 ft 356 kts 252°
2026-05-01 11:45 35.24297 -85.91896 20060 ft 356 kts 252°
2026-05-01 11:46 35.23353 -85.94686 20062 ft 356 kts 252°
2026-05-01 11:46 35.22411 -85.97470 20067 ft 355 kts 252°
2026-05-01 11:46 35.21458 -86.00280 20058 ft 355 kts 252°
2026-05-01 11:46 35.20513 -86.03069 20059 ft 355 kts 252°
2026-05-01 11:47 35.19569 -86.05849 20060 ft 355 kts 252°
2026-05-01 11:47 35.18624 -86.08629 20065 ft 355 kts 252°
2026-05-01 11:47 35.17679 -86.11410 20058 ft 356 kts 252°
2026-05-01 11:47 35.16734 -86.14185 20057 ft 356 kts 252°
2026-05-01 11:48 35.15787 -86.16966 20064 ft 356 kts 252°
2026-05-01 11:48 35.14832 -86.19765 20056 ft 356 kts 252°
2026-05-01 11:48 35.13879 -86.22558 20040 ft 356 kts 252°
2026-05-01 11:48 35.12927 -86.25343 20044 ft 356 kts 252°
2026-05-01 11:49 35.11984 -86.28102 20050 ft 357 kts 252°
2026-05-01 11:49 35.11028 -86.30895 20060 ft 357 kts 252°
2026-05-01 11:49 35.10072 -86.33687 20076 ft 357 kts 252°
2026-05-01 11:49 35.09111 -86.36490 20036 ft 358 kts 251°
2026-05-01 11:50 35.08152 -86.39283 20040 ft 356 kts 252°
2026-05-01 11:50 35.07194 -86.42069 20077 ft 356 kts 251°
2026-05-01 11:50 35.06235 -86.44859 20075 ft 357 kts 252°
2026-05-01 11:50 35.05274 -86.47653 20083 ft 357 kts 252°
2026-05-01 11:51 35.04311 -86.50449 20079 ft 358 kts 252°
2026-05-01 11:51 35.03350 -86.53236 20086 ft 357 kts 251°
2026-05-01 11:51 35.02386 -86.56033 20072 ft 357 kts 251°
2026-05-01 11:51 35.01424 -86.58817 20077 ft 357 kts 252°
2026-05-01 11:52 35.00464 -86.61594 20070 ft 357 kts 251°
2026-05-01 11:52 34.99500 -86.64382 20070 ft 357 kts 252°
2026-05-01 11:52 34.98534 -86.67171 20082 ft 357 kts 251°
2026-05-01 11:52 34.97567 -86.69961 20073 ft 358 kts 251°
2026-05-01 11:53 34.96601 -86.72745 20068 ft 357 kts 251°
2026-05-01 11:53 34.95659 -86.75457 20079 ft 357 kts 251°
2026-05-01 11:53 34.94692 -86.78240 20045 ft 358 kts 251°
2026-05-01 11:53 34.93720 -86.81035 20073 ft 356 kts 251°
2026-05-01 11:54 34.92752 -86.83817 20061 ft 357 kts 251°
2026-05-01 11:54 34.91785 -86.86592 20058 ft 357 kts 251°
2026-05-01 11:54 34.90816 -86.89371 20044 ft 358 kts 251°
2026-05-01 11:54 34.89840 -86.92167 20038 ft 358 kts 251°
2026-05-01 11:55 34.88877 -86.94924 20048 ft 357 kts 251°
2026-05-01 11:55 34.87906 -86.97703 20076 ft 357 kts 251°
2026-05-01 11:55 34.86929 -87.00494 20052 ft 359 kts 251°
2026-05-01 11:55 34.85943 -87.03310 20055 ft 357 kts 251°
2026-05-01 11:56 34.84981 -87.06054 20041 ft 357 kts 251°
2026-05-01 11:56 34.83998 -87.08853 20048 ft 356 kts 251°
2026-05-01 11:56 34.83030 -87.11613 20024 ft 357 kts 251°
2026-05-01 11:56 34.82060 -87.14372 20022 ft 357 kts 251°
2026-05-01 11:57 34.81078 -87.17162 20044 ft 356 kts 251°
2026-05-01 11:57 34.80100 -87.19940 20026 ft 357 kts 251°
2026-05-01 11:57 34.79133 -87.22686 20026 ft 357 kts 251°
2026-05-01 11:57 34.78152 -87.25467 20034 ft 357 kts 251°
2026-05-01 11:58 34.77174 -87.28239 20040 ft 357 kts 251°
2026-05-01 11:58 34.76183 -87.31043 20029 ft 358 kts 251°
2026-05-01 11:58 34.74224 -87.36581 20026 ft 358 kts 251°
2026-05-01 11:59 34.73234 -87.39373 20034 ft 357 kts 251°
2026-05-01 11:59 34.72255 -87.42133 20035 ft 357 kts 251°
2026-05-01 11:59 34.71275 -87.44897 20038 ft 356 kts 251°
2026-05-01 12:00 34.69305 -87.50442 20077 ft 358 kts 251°
2026-05-01 12:00 34.68319 -87.53212 20089 ft 358 kts 251°
2026-05-01 12:00 34.66344 -87.58754 20075 ft 357 kts 251°
2026-05-01 12:01 34.65370 -87.61483 20084 ft 356 kts 251°
2026-05-01 12:01 34.64374 -87.64273 20084 ft 357 kts 251°
2026-05-01 12:01 34.63384 -87.67044 20074 ft 357 kts 250°
2026-05-01 12:01 34.62395 -87.69810 20076 ft 357 kts 250°
2026-05-01 12:02 34.61407 -87.72568 20070 ft 357 kts 251°
2026-05-01 12:02 34.60419 -87.75324 20035 ft 357 kts 250°
2026-05-01 12:02 34.59433 -87.78077 20027 ft 356 kts 250°
2026-05-01 12:02 34.58454 -87.80802 20028 ft 356 kts 250°
2026-05-01 12:03 34.57463 -87.83562 20022 ft 357 kts 251°
2026-05-01 12:03 34.56472 -87.86318 20036 ft 357 kts 250°
2026-05-01 12:03 34.55476 -87.89085 20029 ft 357 kts 251°
2026-05-01 12:03 34.54486 -87.91834 20043 ft 357 kts 250°
2026-05-01 12:04 34.53494 -87.94587 20033 ft 357 kts 250°
2026-05-01 12:04 34.52492 -87.97363 20049 ft 356 kts 251°
2026-05-01 12:04 34.51499 -88.00111 20058 ft 356 kts 251°
2026-05-01 12:04 34.50520 -88.02821 20053 ft 356 kts 251°
2026-05-01 12:05 34.49542 -88.05570 20047 ft 354 kts 253°
2026-05-01 12:05 34.49522 -88.11343 20038 ft 347 kts 278°
2026-05-01 12:05 34.49431 -88.14281 20055 ft 351 kts 259°
2026-05-01 12:06 34.48478 -88.17030 20040 ft 357 kts 248°
2026-05-01 12:06 34.47322 -88.19682 20040 ft 357 kts 247°
2026-05-01 12:06 34.46321 -88.22414 20048 ft 353 kts 253°
2026-05-01 12:06 34.45438 -88.25178 20051 ft 353 kts 253°
2026-05-01 12:07 34.44548 -88.27945 20049 ft 353 kts 253°
2026-05-01 12:07 34.43630 -88.30691 20046 ft 355 kts 249°
2026-05-01 12:07 34.42429 -88.33311 20042 ft 358 kts 244°
2026-05-01 12:07 34.41160 -88.35917 20044 ft 358 kts 245°
2026-05-01 12:08 34.39901 -88.38515 20036 ft 359 kts 245°
2026-05-01 12:08 34.38643 -88.41112 20029 ft 358 kts 245°
2026-05-01 12:08 34.37385 -88.43709 20034 ft 359 kts 245°
2026-05-01 12:08 34.36123 -88.46314 20059 ft 359 kts 245°
2026-05-01 12:09 34.34846 -88.48950 20066 ft 360 kts 245°
2026-05-01 12:09 34.33599 -88.51526 20081 ft 359 kts 245°
2026-05-01 12:09 34.32322 -88.54162 20082 ft 359 kts 245°
2026-05-01 12:09 34.31062 -88.56761 20078 ft 358 kts 245°
2026-05-01 12:10 34.29815 -88.59332 20098 ft 358 kts 245°
2026-05-01 12:10 34.27294 -88.64529 20088 ft 358 kts 245°
2026-05-01 12:10 34.26031 -88.67130 20088 ft 359 kts 245°
2026-05-01 12:11 34.23506 -88.72328 20088 ft 360 kts 244°
2026-05-01 12:11 34.22243 -88.74926 20085 ft 359 kts 244°
2026-05-01 12:11 34.20979 -88.77525 20086 ft 359 kts 244°
2026-05-01 12:12 34.19711 -88.80128 20090 ft 359 kts 245°
2026-05-01 12:12 34.18437 -88.82742 20087 ft 359 kts 245°
2026-05-01 12:12 34.17174 -88.85333 20092 ft 358 kts 244°
2026-05-01 12:12 34.15919 -88.87907 20074 ft 358 kts 244°
2026-05-01 12:13 34.14655 -88.90495 20076 ft 358 kts 244°
2026-05-01 12:13 34.13406 -88.93053 20089 ft 358 kts 244°
2026-05-01 12:13 34.12143 -88.95638 20093 ft 358 kts 244°
2026-05-01 12:13 34.10881 -88.98218 20074 ft 358 kts 245°
2026-05-01 12:14 34.09613 -89.00809 20054 ft 358 kts 245°
2026-05-01 12:14 34.08351 -89.03384 20021 ft 358 kts 244°
2026-05-01 12:14 34.07087 -89.05964 20012 ft 357 kts 245°
2026-05-01 12:14 34.05817 -89.08553 20018 ft 357 kts 245°
2026-05-01 12:15 34.04550 -89.11136 20026 ft 356 kts 245°
2026-05-01 12:15 34.03299 -89.13683 20003 ft 356 kts 245°
2026-05-01 12:15 34.02038 -89.16248 20024 ft 356 kts 245°
2026-05-01 12:15 34.00770 -89.18828 20012 ft 357 kts 245°
2026-05-01 12:16 33.99502 -89.21404 20017 ft 357 kts 245°
2026-05-01 12:16 33.98236 -89.23975 20012 ft 357 kts 245°
2026-05-01 12:16 33.96965 -89.26553 20011 ft 356 kts 245°
2026-05-01 12:16 33.95699 -89.29118 20014 ft 356 kts 244°
2026-05-01 12:17 33.94434 -89.31683 20011 ft 355 kts 245°
2026-05-01 12:17 33.93171 -89.34238 20014 ft 355 kts 244°
2026-05-01 12:17 33.91920 -89.36770 20014 ft 355 kts 245°
2026-05-01 12:17 33.90655 -89.39327 20007 ft 355 kts 245°
2026-05-01 12:18 33.89386 -89.41891 20017 ft 355 kts 244°
2026-05-01 12:18 33.88114 -89.44458 20008 ft 355 kts 244°
2026-05-01 12:18 33.86845 -89.47019 20005 ft 356 kts 244°
2026-05-01 12:18 33.85580 -89.49570 20012 ft 356 kts 244°
2026-05-01 12:19 33.84319 -89.52110 20013 ft 356 kts 244°
2026-05-01 12:19 33.83042 -89.54679 20000 ft 356 kts 244°
2026-05-01 12:19 33.81777 -89.57225 20006 ft 355 kts 245°
2026-05-01 12:19 33.80505 -89.59782 20025 ft 355 kts 245°
2026-05-01 12:20 33.79243 -89.62317 20006 ft 356 kts 244°
2026-05-01 12:20 33.77980 -89.64851 20005 ft 354 kts 244°
2026-05-01 12:20 33.76703 -89.67413 20013 ft 354 kts 244°
2026-05-01 12:20 33.75447 -89.69931 20011 ft 354 kts 244°
2026-05-01 12:21 33.74174 -89.72482 20008 ft 354 kts 244°
2026-05-01 12:21 33.72917 -89.74998 20001 ft 354 kts 244°
2026-05-01 12:21 33.71639 -89.77554 20004 ft 353 kts 244°
2026-05-01 12:21 33.70385 -89.80059 20006 ft 350 kts 244°
2026-05-01 12:22 33.69138 -89.82548 19801 ft 347 kts 244°
2026-05-01 12:22 33.67916 -89.84984 19394 ft 339 kts 244°
2026-05-01 12:22 33.66720 -89.87363 18959 ft 330 kts 244°
2026-05-01 12:22 33.65537 -89.89720 18525 ft 325 kts 244°
2026-05-01 12:23 33.64387 -89.92009 18106 ft 321 kts 244°
2026-05-01 12:23 33.63250 -89.94273 17690 ft 317 kts 244°
2026-05-01 12:23 33.62121 -89.96519 17281 ft 313 kts 244°
2026-05-01 12:23 33.60994 -89.98760 16881 ft 309 kts 244°
2026-05-01 12:24 33.59896 -90.00942 16500 ft 305 kts 244°
2026-05-01 12:24 33.58805 -90.03110 16103 ft 303 kts 244°
2026-05-01 12:24 33.57721 -90.05262 15705 ft 300 kts 244°
2026-05-01 12:24 33.56645 -90.07398 15224 ft 299 kts 244°
2026-05-01 12:25 33.55577 -90.09516 14870 ft 294 kts 244°
2026-05-01 12:25 33.53500 -90.13631 14092 ft 287 kts 244°
2026-05-01 12:25 33.52467 -90.15675 13718 ft 284 kts 243°
2026-05-01 12:26 33.51459 -90.17670 13342 ft 281 kts 243°
2026-05-01 12:26 33.49451 -90.21641 12585 ft 277 kts 243°
2026-05-01 12:26 33.48450 -90.23619 12192 ft 275 kts 242°
2026-05-01 12:27 33.47462 -90.25571 11845 ft 273 kts 242°
2026-05-01 12:27 33.45613 -90.29464 11119 ft 265 kts 253°
2026-05-01 12:28 33.44606 -90.33639 10404 ft 261 kts 256°
2026-05-01 12:28 33.44113 -90.35716 10062 ft 258 kts 256°
2026-05-01 12:28 33.43165 -90.39710 9950 ft 249 kts 256°
2026-05-01 12:29 33.42689 -90.41717 9946 ft 252 kts 256°
2026-05-01 12:29 33.42210 -90.43739 9949 ft 253 kts 256°
2026-05-01 12:29 33.42140 -90.47772 9939 ft 250 kts 301°
2026-05-01 12:30 33.45233 -90.49295 9957 ft 266 kts 11°
2026-05-01 12:30 33.46838 -90.48169 9958 ft 276 kts 46°
2026-05-01 12:30 33.47671 -90.46106 9958 ft 282 kts 82°
2026-05-01 12:31 33.47427 -90.43803 9950 ft 282 kts 114°
2026-05-01 12:31 33.46625 -90.41650 9947 ft 284 kts 113°
2026-05-01 12:31 33.45990 -90.39404 9939 ft 285 kts 105°
2026-05-01 12:31 33.45591 -90.37078 9944 ft 285 kts 98°
2026-05-01 12:32 33.45437 -90.34746 9955 ft 285 kts 90°
2026-05-01 12:32 33.45861 -90.30032 9961 ft 284 kts 75°
2026-05-01 12:32 33.46384 -90.27742 9971 ft 284 kts 71°
2026-05-01 12:33 33.47316 -90.25706 9986 ft 279 kts 43°
2026-05-01 12:33 33.48911 -90.24499 9963 ft 270 kts 12°
2026-05-01 12:33 33.50737 -90.24380 9989 ft 260 kts 344°
2026-05-01 12:33 33.52348 -90.25290 9997 ft 254 kts 317°
2026-05-01 12:34 33.53403 -90.26942 9986 ft 251 kts 291°
2026-05-01 12:34 33.53707 -90.28977 9948 ft 251 kts 265°
2026-05-01 12:34 33.53334 -90.30993 9969 ft 252 kts 255°
2026-05-01 12:34 33.52842 -90.33033 9963 ft 253 kts 256°
2026-05-01 12:35 33.52362 -90.35060 9938 ft 253 kts 256°
2026-05-01 12:35 33.51881 -90.37093 9939 ft 253 kts 256°
2026-05-01 12:35 33.51406 -90.39108 9937 ft 253 kts 256°
2026-05-01 12:35 33.50924 -90.41148 9935 ft 253 kts 256°
2026-05-01 12:36 33.50254 -90.43065 9935 ft 255 kts 237°
2026-05-01 12:36 33.48916 -90.44489 9944 ft 261 kts 211°
2026-05-01 12:36 33.47140 -90.45037 9943 ft 269 kts 183°
2026-05-01 12:36 33.45323 -90.44517 9946 ft 277 kts 154°
2026-05-01 12:37 33.43912 -90.42944 9952 ft 283 kts 121°
2026-05-01 12:37 33.43411 -90.40696 9946 ft 283 kts 86°
2026-05-01 12:37 33.43819 -90.38413 9957 ft 283 kts 72°
2026-05-01 12:37 33.44376 -90.36137 9960 ft 285 kts 73°
2026-05-01 12:38 33.44923 -90.33850 9961 ft 284 kts 73°
2026-05-01 12:38 33.45458 -90.31596 9974 ft 284 kts 73°
2026-05-01 12:38 33.46001 -90.29305 9959 ft 285 kts 73°
2026-05-01 12:38 33.46584 -90.27043 9975 ft 283 kts 64°
2026-05-01 12:39 33.47748 -90.25215 9987 ft 277 kts 33°
2026-05-01 12:39 33.49466 -90.24330 9963 ft 266 kts
2026-05-01 12:39 33.51281 -90.24543 9994 ft 257 kts 336°
2026-05-01 12:39 33.52751 -90.25693 9994 ft 253 kts 310°
2026-05-01 12:40 33.53612 -90.27496 9975 ft 252 kts 284°
2026-05-01 12:40 33.53694 -90.29559 9944 ft 250 kts 260°
2026-05-01 12:40 33.53254 -90.31561 9972 ft 252 kts 255°
2026-05-01 12:40 33.52768 -90.33594 9961 ft 253 kts 256°
2026-05-01 12:41 33.52289 -90.35622 9933 ft 252 kts 256°
2026-05-01 12:41 33.51813 -90.37641 9935 ft 253 kts 256°
2026-05-01 12:41 33.51334 -90.39670 9930 ft 253 kts 256°
2026-05-01 12:41 33.50857 -90.41684 9929 ft 253 kts 255°
2026-05-01 12:42 33.50024 -90.43536 9936 ft 256 kts 230°
2026-05-01 12:42 33.48540 -90.44788 9873 ft 264 kts 205°
2026-05-01 12:42 33.46760 -90.45123 9701 ft 263 kts 177°
2026-05-01 12:42 33.45031 -90.44396 9529 ft 261 kts 148°
2026-05-01 12:43 33.43834 -90.42799 9365 ft 257 kts 117°
2026-05-01 12:43 33.43443 -90.40766 9187 ft 249 kts 86°
2026-05-01 12:43 33.43772 -90.38774 8992 ft 240 kts 72°
2026-05-01 12:43 33.44230 -90.36867 8817 ft 239 kts 73°
2026-05-01 12:44 33.44679 -90.34963 8640 ft 241 kts 73°
2026-05-01 12:44 33.45134 -90.33034 8470 ft 240 kts 73°
2026-05-01 12:44 33.46036 -90.29203 8117 ft 238 kts 73°
2026-05-01 12:45 33.47511 -90.25800 7773 ft 227 kts 29°
2026-05-01 12:45 33.48972 -90.25248 7598 ft 218 kts 356°
2026-05-01 12:45 33.50389 -90.25701 7410 ft 215 kts 326°
2026-05-01 12:46 33.51412 -90.26965 7175 ft 213 kts 297°
2026-05-01 12:46 33.51720 -90.28695 6916 ft 214 kts 265°
2026-05-01 12:46 33.51379 -90.30436 6708 ft 216 kts 256°
2026-05-01 12:46 33.50960 -90.32172 6501 ft 221 kts 256°
2026-05-01 12:47 33.50725 -90.33161 6354 ft 223 kts 256°
2026-05-01 12:47 33.50301 -90.34955 6086 ft 222 kts 256°
2026-05-01 12:47 33.49886 -90.36710 5836 ft 220 kts 256°
2026-05-01 12:47 33.49468 -90.38478 5588 ft 219 kts 256°
2026-05-01 12:48 33.49018 -90.40201 5339 ft 220 kts 246°
2026-05-01 12:48 33.48021 -90.41595 5071 ft 223 kts 212°
2026-05-01 12:48 33.46563 -90.42124 4936 ft 217 kts 177°
2026-05-01 12:48 33.45122 -90.41648 4944 ft 219 kts 145°
2026-05-01 12:49 33.44110 -90.40360 4945 ft 214 kts 112°
2026-05-01 12:49 33.43851 -90.38641 4950 ft 209 kts 79°
2026-05-01 12:49 33.44202 -90.36946 4985 ft 210 kts 72°
2026-05-01 12:49 33.44604 -90.35278 4960 ft 210 kts 72°
2026-05-01 12:50 33.45192 -90.33684 4966 ft 208 kts 55°
2026-05-01 12:50 33.46023 -90.32282 4967 ft 208 kts 53°
2026-05-01 12:50 33.46867 -90.30854 4962 ft 209 kts 53°
2026-05-01 12:50 33.47696 -90.29444 4946 ft 209 kts 54°
2026-05-01 12:51 33.48548 -90.27992 4756 ft 213 kts 54°
2026-05-01 12:51 33.49390 -90.26555 4506 ft 211 kts 54°
2026-05-01 12:51 33.51047 -90.23720 4000 ft 204 kts 54°
2026-05-01 12:52 33.51859 -90.22327 3762 ft 201 kts 54°
2026-05-01 12:52 33.53443 -90.19607 3263 ft 197 kts 55°
2026-05-01 12:52 33.54218 -90.18274 3029 ft 195 kts 55°
2026-05-01 12:53 33.55759 -90.15620 2969 ft 196 kts 55°
2026-05-01 12:53 33.56540 -90.14275 2995 ft 195 kts 55°
2026-05-01 12:53 33.57311 -90.12944 2992 ft 196 kts 55°
2026-05-01 12:54 33.58093 -90.11595 2988 ft 195 kts 55°
2026-05-01 12:54 33.59726 -90.08997 2985 ft 195 kts 38°
2026-05-01 12:54 33.60961 -90.08379 2987 ft 197 kts 10°
2026-05-01 12:55 33.63726 -90.08094 2939 ft 199 kts
2026-05-01 12:55 33.65115 -90.08208 2937 ft 202 kts 344°
2026-05-01 12:55 33.66317 -90.09103 2943 ft 208 kts 323°
2026-05-01 12:56 33.67430 -90.10247 2923 ft 210 kts 323°
2026-05-01 12:56 33.68523 -90.11353 2830 ft 201 kts 325°
2026-05-01 12:56 33.69724 -90.11947 2685 ft 177 kts
2026-05-01 12:56 33.70779 -90.11499 2573 ft 154 kts 39°
2026-05-01 12:57 33.71356 -90.10456 2442 ft 152 kts 73°
2026-05-01 12:57 33.70695 -90.08086 2186 ft 158 kts 128°
2026-05-01 12:57 33.69776 -90.07375 2070 ft 162 kts 156°
2026-05-01 12:58 33.68651 -90.07209 2040 ft 164 kts 181°
2026-05-01 12:58 33.67521 -90.07483 2046 ft 168 kts 194°
2026-05-01 12:58 33.66403 -90.07938 2045 ft 168 kts 195°
2026-05-01 12:59 33.64135 -90.08552 2041 ft 165 kts 181°
2026-05-01 12:59 33.62993 -90.08596 2043 ft 164 kts 175°
2026-05-01 12:59 33.60696 -90.08504 2098 ft 166 kts 174°
2026-05-01 13:00 33.58384 -90.08534 1770 ft 159 kts 178°
2026-05-01 13:00 33.57271 -90.08582 1588 ft 157 kts 178°
2026-05-01 13:01 33.55106 -90.08650 1204 ft 158 kts 177°
2026-05-01 13:01 33.54004 -90.08669 1044 ft 154 kts 178°
2026-05-01 13:01 33.51866 -90.08727 569 ft 150 kts 179°
2026-05-01 13:02 33.50816 -90.08769 365 ft 150 kts 179°
2026-05-01 13:07 33.49060 -90.08575 151 ft 0 kts 360°